When you browse on this site, cookies collect data to enhance your experience and personalize the content and advertising you see.
Visit our Privacy Policy to learn more. By continuing to use the site, you agree to this use of cookies and data.
  • En España
  • Lista de países
  • Para 7 días
  • Temperatura del agua
  • El tiempo en el mapa
  • Informadores
  • user-avatar
    Iniciar sesión

    Tiempo cada hora Kielce

    Hoy, 28 Mayo, Jueves

    Tiempo Temperatura Precipitaciones Viento Presión Humedad
    00:00 +9°C° 0 mm 2 mps 741 mmHg 92%
    01:00 +10°C° 0 mm 1 mps 740 mmHg 92%
    02:00 +9°C° 0 mm 1 mps 740 mmHg 92%
    03:00 +9°C° 0 mm 1 mps 740 mmHg 93%
    04:00 +9°C° 0 mm 1 mps 739 mmHg 93%
    05:00 +10°C° 0.2 mm 2 mps 739 mmHg 89%
    06:00 +12°C° 0.2 mm 2 mps 739 mmHg 85%
    07:00 +14°C° 0.2 mm 2 mps 739 mmHg 82%
    08:00 +14°C° 0.4 mm 3 mps 739 mmHg 75%
    09:00 +16°C° 0.4 mm 3 mps 739 mmHg 69%
    10:00 +17°C° 0.4 mm 4 mps 739 mmHg 63%
    11:00 +18°C° 0.2 mm 4 mps 738 mmHg 61%
    12:00 +17°C° 0.2 mm 5 mps 738 mmHg 60%
    13:00 +17°C° 0.2 mm 5 mps 738 mmHg 58%
    14:00 +17°C° 0.2 mm 5 mps 738 mmHg 60%
    15:00 +17°C° 0.2 mm 5 mps 737 mmHg 62%
    16:00 +16°C° 0.2 mm 6 mps 737 mmHg 64%
    17:00 +15°C° 0.1 mm 5 mps 737 mmHg 70%
    18:00 +14°C° 0.1 mm 4 mps 737 mmHg 75%
    19:00 +13°C° 0.1 mm 3 mps 737 mmHg 81%
    20:00 +12°C° 0 mm 3 mps 737 mmHg 85%
    21:00 +11°C° 0 mm 3 mps 737 mmHg 89%
    22:00 +10°C° 0 mm 4 mps 737 mmHg 93%
    23:00 +10°C° 0 mm 4 mps 737 mmHg 95%

    Mañana, 29 Mayo, Viernes

    Tiempo Temperatura Precipitaciones Viento Presión Humedad
    00:00 +8°C° 0 mm 4 mps 737 mmHg 96%
    01:00 +8°C° 0 mm 4 mps 737 mmHg 97%
    02:00 +8°C° 0 mm 4 mps 737 mmHg 96%
    03:00 +10°C° 0 mm 4 mps 737 mmHg 94%
    04:00 +10°C° 0 mm 4 mps 737 mmHg 93%
    05:00 +9°C° 0 mm 5 mps 737 mmHg 88%
    06:00 +9°C° 0 mm 5 mps 737 mmHg 83%
    07:00 +9°C° 0 mm 5 mps 737 mmHg 78%
    08:00 +10°C° 0 mm 6 mps 738 mmHg 74%
    09:00 +13°C° 0 mm 6 mps 738 mmHg 69%
    10:00 +14°C° 0 mm 6 mps 738 mmHg 64%
    11:00 +14°C° 0.3 mm 6 mps 737 mmHg 66%
    12:00 +14°C° 0.3 mm 6 mps 737 mmHg 68%
    13:00 +14°C° 0.3 mm 6 mps 737 mmHg 70%
    14:00 +14°C° 0.2 mm 6 mps 737 mmHg 67%
    15:00 +15°C° 0.2 mm 6 mps 737 mmHg 64%
    16:00 +15°C° 0.2 mm 6 mps 736 mmHg 61%
    17:00 +14°C° 0.2 mm 5 mps 736 mmHg 68%
    18:00 +12°C° 0.2 mm 5 mps 736 mmHg 74%
    19:00 +11°C° 0.2 mm 4 mps 736 mmHg 80%
    20:00 +10°C° 0 mm 4 mps 736 mmHg 83%
    21:00 +8°C° 0 mm 4 mps 736 mmHg 85%
    22:00 +7°C° 0 mm 4 mps 736 mmHg 87%
    23:00 +7°C° 0 mm 4 mps 735 mmHg 89%

    Pasado mañana, 30 Mayo, Sábado

    Tiempo Temperatura Precipitaciones Viento Presión Humedad
    00:00 +6°C° 0 mm 4 mps 735 mmHg 91%
    01:00 +6°C° 0 mm 4 mps 735 mmHg 93%
    02:00 +6°C° 0 mm 4 mps 735 mmHg 92%
    03:00 +6°C° 0 mm 4 mps 735 mmHg 90%
    04:00 +6°C° 0 mm 4 mps 735 mmHg 89%
    05:00 +6°C° 0.1 mm 5 mps 734 mmHg 88%
    06:00 +6°C° 0.1 mm 5 mps 734 mmHg 87%
    07:00 +7°C° 0.1 mm 5 mps 734 mmHg 86%
    08:00 +7°C° 0.6 mm 5 mps 734 mmHg 88%
    09:00 +7°C° 0.6 mm 5 mps 734 mmHg 91%
    10:00 +6°C° 0.6 mm 5 mps 734 mmHg 94%
    11:00 +7°C° 0.4 mm 5 mps 734 mmHg 94%
    12:00 +7°C° 0.4 mm 5 mps 734 mmHg 94%
    13:00 +7°C° 0.4 mm 5 mps 734 mmHg 94%
    14:00 +7°C° 0.2 mm 5 mps 733 mmHg 94%
    15:00 +7°C° 0.2 mm 5 mps 733 mmHg 94%
    16:00 +7°C° 0.2 mm 4 mps 733 mmHg 95%
    17:00 +8°C° 0.1 mm 4 mps 733 mmHg 95%
    18:00 +8°C° 0.1 mm 4 mps 732 mmHg 96%
    19:00 +8°C° 0.1 mm 4 mps 732 mmHg 96%
    20:00 +8°C° 0.2 mm 4 mps 732 mmHg 97%
    21:00 +10°C° 0.2 mm 4 mps 732 mmHg 97%
    22:00 +9°C° 0.2 mm 5 mps 731 mmHg 97%
    23:00 +9°C° 1.7 mm 5 mps 731 mmHg 98%

    31 Mayo, Domingo

    Tiempo Temperatura Precipitaciones Viento Presión Humedad
    00:00 +9°C° 1.7 mm 5 mps 730 mmHg 98%
    01:00 +10°C° 1.7 mm 5 mps 730 mmHg 98%
    02:00 +10°C° 3.9 mm 5 mps 730 mmHg 98%
    03:00 +10°C° 3.9 mm 5 mps 729 mmHg 98%
    04:00 +10°C° 3.9 mm 6 mps 729 mmHg 97%
    05:00 +10°C° 2.9 mm 6 mps 729 mmHg 97%
    06:00 +10°C° 2.9 mm 6 mps 729 mmHg 96%
    07:00 +10°C° 2.9 mm 6 mps 729 mmHg 96%
    08:00 +10°C° 0.1 mm 6 mps 729 mmHg 95%
    09:00 +11°C° 0.1 mm 6 mps 730 mmHg 94%
    10:00 +13°C° 0.1 mm 6 mps 730 mmHg 93%
    11:00 +13°C° 0 mm 6 mps 730 mmHg 92%
    12:00 +14°C° 0 mm 6 mps 730 mmHg 91%
    13:00 +14°C° 0 mm 6 mps 731 mmHg 90%
    14:00 +15°C° 0.2 mm 5 mps 731 mmHg 90%
    15:00 +15°C° 0.2 mm 5 mps 731 mmHg 90%
    16:00 +16°C° 0.2 mm 5 mps 731 mmHg 90%
    17:00 +15°C° 0.5 mm 5 mps 731 mmHg 91%
    18:00 +15°C° 0.5 mm 5 mps 732 mmHg 91%
    19:00 +15°C° 0.5 mm 5 mps 732 mmHg 92%
    20:00 +14°C° 0 mm 5 mps 732 mmHg 93%
    21:00 +13°C° 0 mm 5 mps 733 mmHg 94%
    22:00 +13°C° 0 mm 5 mps 733 mmHg 95%
    23:00 +12°C° 0 mm 5 mps 733 mmHg 95%

    1 Junio, Lunes

    Tiempo Temperatura Precipitaciones Viento Presión Humedad
    00:00 +12°C° 0 mm 5 mps 733 mmHg 95%
    01:00 +12°C° 0 mm 5 mps 734 mmHg 95%
    02:00 +10°C° 0 mm 5 mps 734 mmHg 95%
    03:00 +9°C° 0 mm 5 mps 734 mmHg 94%
    04:00 +9°C° 0 mm 5 mps 734 mmHg 94%
    05:00 +10°C° 0 mm 5 mps 734 mmHg 91%
    06:00 +11°C° 0 mm 6 mps 735 mmHg 88%
    07:00 +11°C° 0 mm 6 mps 735 mmHg 85%
    08:00 +13°C° 0 mm 6 mps 735 mmHg 80%
    09:00 +14°C° 0 mm 6 mps 735 mmHg 76%
    10:00 +15°C° 0 mm 6 mps 736 mmHg 71%
    11:00 +16°C° 0.1 mm 7 mps 736 mmHg 68%
    12:00 +17°C° 0.1 mm 7 mps 736 mmHg 64%
    13:00 +18°C° 0.1 mm 7 mps 736 mmHg 60%
    14:00 +19°C° 0.1 mm 6 mps 736 mmHg 62%
    15:00 +19°C° 0.1 mm 6 mps 736 mmHg 63%
    16:00 +17°C° 0.1 mm 6 mps 736 mmHg 64%
    17:00 +16°C° 0.1 mm 5 mps 736 mmHg 69%
    18:00 +15°C° 0.1 mm 4 mps 735 mmHg 75%
    19:00 +14°C° 0.1 mm 3 mps 735 mmHg 80%
    20:00 +13°C° 0 mm 3 mps 736 mmHg 83%
    21:00 +12°C° 0 mm 3 mps 736 mmHg 86%
    22:00 +11°C° 0 mm 3 mps 736 mmHg 88%
    23:00 +11°C° 0 mm 3 mps 736 mmHg 90%

    2 Junio, Martes

    Tiempo Temperatura Precipitaciones Viento Presión Humedad
    00:00 +10°C° 0 mm 3 mps 736 mmHg 92%
    01:00 +10°C° 0 mm 3 mps 736 mmHg 94%
    02:00 +10°C° 0 mm 3 mps 736 mmHg 94%
    03:00 +9°C° 0 mm 3 mps 736 mmHg 94%
    04:00 +9°C° 0 mm 3 mps 736 mmHg 95%
    05:00 +11°C° 0 mm 4 mps 736 mmHg 89%
    06:00 +12°C° 0 mm 4 mps 736 mmHg 83%
    07:00 +14°C° 0 mm 5 mps 736 mmHg 77%
    08:00 +15°C° 0.1 mm 5 mps 737 mmHg 71%
    09:00 +16°C° 0.1 mm 5 mps 737 mmHg 66%
    10:00 +19°C° 0.1 mm 6 mps 737 mmHg 60%
    11:00 +19°C° 0.1 mm 5 mps 737 mmHg 59%
    12:00 +19°C° 0.1 mm 5 mps 736 mmHg 58%
    13:00 +20°C° 0.1 mm 5 mps 736 mmHg 56%
    14:00 +20°C° 0.1 mm 5 mps 736 mmHg 58%
    15:00 +20°C° 0.1 mm 5 mps 736 mmHg 59%
    16:00 +19°C° 0.1 mm 5 mps 735 mmHg 60%
    17:00 +18°C° 0 mm 4 mps 735 mmHg 67%
    18:00 +17°C° 0 mm 4 mps 735 mmHg 73%
    19:00 +16°C° 0 mm 3 mps 735 mmHg 79%
    20:00 +14°C° 0 mm 3 mps 735 mmHg 83%
    21:00 +12°C° 0 mm 3 mps 736 mmHg 86%
    22:00 +11°C° 0 mm 3 mps 736 mmHg 90%
    23:00 +11°C° 0 mm 3 mps 736 mmHg 91%
    Mostrar más